Current Version              Previous Version:    01  02  03  04  05  06  07  08  09  10  11  12  13  14  15  16  17  18  19  20  21  22  23  24  25  26  27  28  29  30  
   31  32  33  34  35  36  37  38  39  40  41  42  43  44  45  46  47  48  49  50  51  52  53  54  55  56  57  58  59  60  

[Printable]
192
ASUS44 KFWD 210015
RWRTX
NORTH TEXAS HOURLY WEATHER ROUNDUP
NATIONAL WEATHER SERVICE FORT WORTH TX
600 PM CST SAT DEC 20 2014

NOTE: "FAIR" INDICATES FEW OR NO CLOUDS BELOW 12,000 FEET WITH NO
SIGNIFICANT WEATHER AND/OR OBSTRUCTIONS TO VISIBILITY.

TXZ118-119-210100-
DALLAS/FORT WORTH METROPLEX

CITY           SKY/WX    TMP DP  RH WIND       PRES   REMARKS
DFW AIRPORT    CLOUDY    47  42  83 NE5       30.17F
6HR MIN TEMP:  45; 6HR MAX TEMP:  47; 6HR PCP: TRACE;

DALLAS LOVE    CLOUDY    48  42  80 NE3       30.18S
6HR MIN TEMP:  46; 6HR MAX TEMP:  48; 6HR PCP: TRACE;

FTW MEACHAM    CLOUDY    48  43  82 E5        30.16S HAZE
6HR MIN TEMP:  46; 6HR MAX TEMP:  49; 6HR PCP:  0.01;

DAL-EXECUTIVE  CLOUDY    49  42  77 E5        30.17S
6HR MIN TEMP:  48; 6HR MAX TEMP:  49;

FTW-ALLIANCE   CLOUDY    46  43  89 E5        30.17S
6HR MIN TEMP:  45; 6HR MAX TEMP:  47; 6HR PCP: TRACE;

FTW-SPINKS     CLOUDY    48  45  87 E6        30.18F FOG
ARLINGTON      CLOUDY    49  42  77 E6        30.17F
6HR MIN TEMP:  48; 6HR MAX TEMP:  49;

ADDISON        CLOUDY    46  43  87 E3        30.18F
MESQUITE       CLOUDY    46  45  93 CALM      30.19S
LANCASTER      CLOUDY    47  42  82 CALM      30.20R
6HR MIN TEMP:  46; 6HR MAX TEMP:  48;

$$

TXZ091>094-102>105-117-120-121-131>134-210100-
NORTH CENTRAL TEXAS

CITY           SKY/WX    TMP DP  RH WIND       PRES   REMARKS
SHRMAN/DENISON CLOUDY    46  44  93 CALM      30.19S
6HR MIN TEMP:  45; 6HR MAX TEMP:  46;

GAINESVILLE    CLOUDY    45  40  83 CALM      30.19S
6HR MIN TEMP:  43; 6HR MAX TEMP:  46;

BOWIE          CLOUDY    43  42  95 CALM      30.16S
6HR MIN TEMP:  42; 6HR MAX TEMP:  44;

BRIDGEPORT     CLOUDY    47  42  84 CALM      30.18S
6HR MIN TEMP:  45; 6HR MAX TEMP:  47;

DECATUR        CLOUDY    45  41  85 SE3       30.16S
6HR MIN TEMP:  43; 6HR MAX TEMP:  46;

DENTON         CLOUDY    46  42  86 SE7       30.18R
6HR MIN TEMP:  44; 6HR MAX TEMP:  47;

MCKINNEY       CLOUDY    47  43  86 CALM      30.19S
6HR MIN TEMP:  45; 6HR MAX TEMP:  47;

GREENVILLE     CLOUDY    46  45  93 CALM      30.19S
ROCKWALL       CLOUDY    46  44  92 CALM      30.18R
6HR MIN TEMP:  46; 6HR MAX TEMP:  47;

TERRELL        CLOUDY    49  45  86 N5        30.19S
6HR MIN TEMP:  48; 6HR MAX TEMP:  50;

WAXAHACHIE     CLOUDY    47  46  95 NE3       30.19S
6HR MIN TEMP:  47; 6HR MAX TEMP:  48;

CLEBURNE         N/A     48  45  87 E5        30.17F
GRANBURY       CLOUDY    50  42  75 CALM      30.17F
6HR MIN TEMP:  47; 6HR MAX TEMP:  51;

$$

TXZ083>090-098>101-113>116-127>130-139>142-154-155-210100-
WESTERN NORTH TEXAS

CITY           SKY/WX    TMP DP  RH WIND       PRES   REMARKS
WICHITA FALLS  CLOUDY    45  40  82 SE8       30.14F
6HR MIN TEMP:  44; 6HR MAX TEMP:  46;

WF-KICKAPOO    CLOUDY    46  40  81 E6        30.15S
6HR MIN TEMP:  44; 6HR MAX TEMP:  46;

VERNON         PTCLDY    47  38  70 SE9       30.11F
6HR MIN TEMP:  32; 6HR MAX TEMP:  52;

ABILENE        CLOUDY    50  41  71 SE8       30.11R
6HR MIN TEMP:  46; 6HR MAX TEMP:  52;

ABILENE-DYESS  CLOUDY    51  40  65 SE8       30.09S
6HR MIN TEMP:  47; 6HR MAX TEMP:  53;

BRECKENRIDGE   CLOUDY    50  40  68 SE5       30.12S
6HR MIN TEMP:  48; 6HR MAX TEMP:  51;

GRAHAM         CLOUDY    46  42  86 E3        30.12F
6HR MIN TEMP:  45; 6HR MAX TEMP:  47;

MINERAL WELLS  CLOUDY    47  41  80 SE3       30.13F
6HR MIN TEMP:  44; 6HR MAX TEMP:  47;

STEPHENVILLE   CLOUDY    47  40  76 E3        30.16F
6HR MIN TEMP:  46; 6HR MAX TEMP:  48;

COMANCHE       CLOUDY    47  42  81 E5        30.14S
6HR MIN TEMP:  46; 6HR MAX TEMP:  50;

BROWNWOOD      CLOUDY    46  41  81 SE6       30.13S
COLEMAN        CLOUDY    51  44  76 SE6       30.12R
6HR MIN TEMP:  48; 6HR MAX TEMP:  52;

$$

TXZ143>147-156>162-174-175-210100-
CENTRAL TEXAS

CITY           SKY/WX    TMP DP  RH WIND       PRES   REMARKS
WACO           CLOUDY    49  44  83 NE6       30.17S
6HR MIN TEMP:  49; 6HR MAX TEMP:  51;

WACO-TSTC      CLOUDY    50  46  87 NE5       30.18S
WACO-MCGREGOR  CLOUDY    50  43  76 NE8       30.18R
6HR MIN TEMP:  48; 6HR MAX TEMP:  52;

HILLSBORO      CLOUDY    49  44  83 NE6       30.17F
6HR MIN TEMP:  48; 6HR MAX TEMP:  50;

CORSICANA      CLOUDY    50  45  83 N5        30.19S
6HR MIN TEMP:  50; 6HR MAX TEMP:  52;

MEXIA          CLOUDY    49  46  88 CALM      30.17R
6HR MIN TEMP:  48; 6HR MAX TEMP:  50;

HEARNE         CLOUDY    51  47  83 CALM      30.18S
6HR MIN TEMP:  51; 6HR MAX TEMP:  53;

CAMERON        CLOUDY    51  48  90 CALM      30.17R
6HR MIN TEMP:  51; 6HR MAX TEMP:  51;

TEMPLE         CLOUDY    48  43  81 NE7       30.15S
6HR MIN TEMP:  48; 6HR MAX TEMP:  52;

KILLEEN        CLOUDY    50  44  81 E7        30.15R
6HR MIN TEMP:  49; 6HR MAX TEMP:  52;

KILLEEN-SKYLRK CLOUDY    50  39  66 NE7       30.13R
6HR MIN TEMP:  50; 6HR MAX TEMP:  52;

FORT HOOD      CLOUDY    50  45  83 E6        30.15
6HR MIN TEMP:  49; 6HR MAX TEMP:  52;

GATESVILLE     CLOUDY    50  45  81 CALM      30.17S
HAMILTON       CLOUDY    49  41  74 SE9       30.15S
6HR MIN TEMP:  46; 6HR MAX TEMP:  50;

$$

TXZ095>097-106>112-122>126-135>138-148>153-164>167-210100-
EAST TEXAS

CITY           SKY/WX    TMP DP  RH WIND       PRES   REMARKS
PARIS          CLOUDY    46  43  87 CALM      30.20S
6HR MIN TEMP:  46; 6HR MAX TEMP:  48;

SULPHUR SPRNGS CLOUDY    48  44  85 CALM      30.21S
6HR MIN TEMP:  47; 6HR MAX TEMP:  49;

MOUNT PLEASANT CLOUDY    48  45  87 NE3       30.21S
6HR MIN TEMP:  47; 6HR MAX TEMP:  50;

MINEOLA        CLOUDY    50  46  87 CALM      30.20R FOG
TYLER          CLEAR     49  42  77 E3        30.17S
6HR MIN TEMP:  49; 6HR MAX TEMP:  55;

LONGVIEW       CLEAR     47  43  86 CALM      30.18S
6HR MIN TEMP:  47; 6HR MAX TEMP:  54;

MARSHALL       CLEAR     48  46  90 CALM      30.20F
6HR MIN TEMP:  48; 6HR MAX TEMP:  53;

ATHENS         CLOUDY    48  43  81 CALM      30.17S
PALESTINE      CLOUDY    49  44  82 CALM      30.19F
JACKSONVILLE   MOCLDY    49  45  87 N3        30.19R
HENDERSON      MOCLDY    47  44  87 CALM      30.19S
6HR MIN TEMP:  47; 6HR MAX TEMP:  54;

NACOGDOCHES    CLEAR     46  41  81 CALM      30.18S
6HR MIN TEMP:  46; 6HR MAX TEMP:  55;

LUFKIN         CLOUDY    54  45  71 CALM      30.17R
6HR MIN TEMP:  53; 6HR MAX TEMP:  57;

$$

SUPPLEMENTAL OBSERVATIONS (CENTRAL)

CITY           SKY/WX    TMP DP  RH WIND       PRES   REMARKS
LAKE TEXOMA      N/A     46  43  87 NE2         N/A
CADDO GRASSLND   N/A     46  43  87 CALM        N/A
PAT MAYSE LAKE   N/A     46  43  87 N1          N/A
GREENVILLE       N/A     46  43  87 NE3         N/A
CEDAR HILL       N/A     46  43  87 CALM        N/A
ATHENS           N/A     50  45  81 SE2         N/A
PALESTINE        N/A     48  43  81 CALM        N/A
LAKE LIMESTONE   N/A     52  46  82 NE3         N/A
MCGREGOR         N/A     48  43  81 NE7         N/A
TEMPLE           N/A     48  45  87 NE8         N/A
$$

SUPPLEMENTAL OBSERVATIONS (WEST)

CITY           SKY/WX    TMP DP  RH WIND       PRES   REMARKS
MILLERS CREEK    N/A     48  43  81 SE6         N/A
POSSUM KINGDOM   N/A     46  41  81 E7          N/A
LBJ GRASSLAND    N/A     46  41  81 S3          N/A